Weather History for KJAS - February, 2013

Change the Weather History Date:

Wednesday, February 13, 2013

  Actual Average (KLFK) Record (KLFK)
Temperature  
Mean Temperature 47 °F 52 °F  
Max Temperature 57 °F 63 °F 84 °F (1911)
Min Temperature 36 °F 41 °F 18 °F (1958)
Degree Days  
Heating Degree Days 18 13  
Month to date heating degree days 183  
Since 1 July heating degree days 1463  
Cooling Degree Days 0 0  
Month to date cooling degree days 0  
Year to date cooling degree days 8  
Moisture  
Dew Point 42 °F    
Average Humidity 76    
Maximum Humidity 100    
Minimum Humidity 53    
Precipitation  
Precipitation 0.00 in 0.14 in 0.68 in (1927)
Month to date precipitation 1.82  
Year to date precipitation 6.00  
Snow  
Snow 0.00 in - - ()
Month to date snowfall  
Since 1 July snowfall  
Snow Depth -    
Sea Level Pressure  
Sea Level Pressure 30.08 in    
Wind  
Wind Speed 7 mph (NW)    
Max Wind Speed 16 mph    
Max Gust Speed 22 mph    
Visibility 9 miles    
Events      
T = Trace of Precipitation, MM = Missing Value Source: NWS Daily Summary

Daily Weather History Graph

Daily Weather History Graph

Search for Another Location

Airport or City:

Trip Planner

Search our weather history database for the weather conditions in past years. The results will help you decide how hot, cold, wet, or windy it might be!

Date:

Astronomy

Feb. 13, 2013 Rise Set
Actual Time 6:58 AM CST 6:02 PM CST
Civil Twilight 6:33 AM CST 6:27 PM CST
Nautical Twilight 6:05 AM CST 6:55 PM CST
Astronomical Twilight 5:37 AM CST 7:23 PM CST
Moon 8:46 AM CST (2/13) 9:45 PM CST (2/13)
Length of Visible Light 11h 53m
Length of Day
11h 03m
Waxing Crescent, 14% of the Moon is Illuminated
Feb 13
Waxing Crescent
Feb 17
First Quarter
Feb 25
Full
Mar 4
Last Quarter
Mar 11
New

Hourly Weather History & Observations

Time (CST) Temp. Dew Point Humidity Pressure Visibility Wind Dir Wind Speed Gust Speed Precip Events Conditions
12:15 AM 52.9 °F 48.0 °F 84% 29.97 in 10.0 mi NW 10.4 mph 17.3 mph N/A   Clear
12:35 AM 52.7 °F 47.1 °F 81% 29.97 in 10.0 mi WNW 8.1 mph - N/A   Clear
12:55 AM 52.2 °F 46.9 °F 82% 29.98 in 10.0 mi WNW 8.1 mph - N/A   Clear
1:15 AM 52.0 °F 46.8 °F 82% 29.99 in 10.0 mi West 6.9 mph - N/A   Clear
1:35 AM 51.8 °F 46.6 °F 82% 30.00 in 10.0 mi West 6.9 mph - N/A   Clear
1:55 AM 51.4 °F 46.9 °F 85% 30.01 in 10.0 mi West 5.8 mph - N/A   Clear
2:15 AM 51.1 °F 46.8 °F 85% 30.01 in 10.0 mi West 6.9 mph - N/A   Clear
2:35 AM 50.9 °F 46.0 °F 83% 30.01 in 10.0 mi West 8.1 mph - N/A   Clear
2:55 AM 50.4 °F 45.3 °F 83% 30.01 in 10.0 mi West 9.2 mph 17.3 mph N/A   Clear
3:15 AM 50.0 °F 44.8 °F 82% 30.03 in 10.0 mi WNW 6.9 mph - N/A   Clear
3:35 AM 50.2 °F 43.9 °F 79% 30.04 in 10.0 mi WNW 9.2 mph - N/A   Clear
3:55 AM 50.0 °F 43.0 °F 77% 30.04 in 10.0 mi WNW 9.2 mph 18.4 mph N/A   Scattered Clouds
4:15 AM 49.6 °F 42.8 °F 77% 30.03 in 10.0 mi WNW 9.2 mph 16.1 mph N/A   Scattered Clouds
4:35 AM 49.3 °F 42.8 °F 78% 30.03 in 10.0 mi NW 5.8 mph - N/A   Mostly Cloudy
4:55 AM 49.1 °F 42.8 °F 79% 30.02 in 10.0 mi NW 5.8 mph 9.2 mph N/A   Overcast
5:15 AM 49.1 °F 42.8 °F 79% 30.03 in 10.0 mi WNW 6.9 mph - N/A   Overcast
5:35 AM 49.1 °F 43.0 °F 79% 30.04 in 10.0 mi West 5.8 mph - N/A   Overcast
6:15 AM 49.1 °F 43.3 °F 81% 30.06 in 10.0 mi WNW 8.1 mph - N/A   Overcast
6:35 AM 48.9 °F 43.0 °F 80% 30.06 in 10.0 mi NW 6.9 mph - N/A   Overcast
6:55 AM 48.6 °F 43.0 °F 81% 30.08 in 10.0 mi WNW 4.6 mph - N/A   Scattered Clouds
7:15 AM 47.8 °F 43.0 °F 83% 30.09 in 10.0 mi WNW 3.5 mph - N/A   Mostly Cloudy
7:35 AM 47.7 °F 43.2 °F 84% 30.10 in 10.0 mi WNW 4.6 mph - N/A   Mostly Cloudy
7:55 AM 47.5 °F 42.3 °F 82% 30.11 in 10.0 mi West 3.5 mph - N/A   Scattered Clouds
8:15 AM 48.4 °F 42.1 °F 79% 30.11 in 10.0 mi NW 4.6 mph - N/A   Mostly Cloudy
8:35 AM 49.3 °F 41.9 °F 76% 30.12 in 10.0 mi WNW 4.6 mph - N/A   Mostly Cloudy
8:55 AM 48.9 °F 41.4 °F 75% 30.12 in 10.0 mi NW 8.1 mph - N/A   Scattered Clouds
9:15 AM 50.7 °F 41.2 °F 70% 30.12 in 10.0 mi NW 10.4 mph 20.7 mph N/A   Mostly Cloudy
9:35 AM 51.6 °F 40.8 °F 67% 30.12 in 10.0 mi NNW 10.4 mph 20.7 mph N/A   Mostly Cloudy
9:55 AM 51.8 °F 41.4 °F 68% 30.13 in 10.0 mi North 11.5 mph 20.7 mph N/A   Mostly Cloudy
10:15 AM 50.9 °F 40.3 °F 67% 30.13 in 10.0 mi North 12.7 mph 17.3 mph N/A   Mostly Cloudy
10:35 AM 50.9 °F 40.5 °F 67% 30.14 in 10.0 mi North 16.1 mph 21.9 mph N/A   Mostly Cloudy
10:55 AM 51.6 °F 40.6 °F 66% 30.14 in 10.0 mi North 16.1 mph 19.6 mph N/A   Mostly Cloudy
11:15 AM 51.4 °F 40.6 °F 67% 30.13 in 10.0 mi NNW 9.2 mph - N/A   Mostly Cloudy
11:35 AM 51.8 °F 41.0 °F 67% 30.12 in 10.0 mi NNW 5.8 mph - N/A   Mostly Cloudy
11:55 AM 52.5 °F 40.8 °F 64% 30.11 in 10.0 mi North 11.5 mph - N/A   Scattered Clouds
12:15 PM 53.1 °F 40.6 °F 63% 30.11 in 10.0 mi NW 6.9 mph 18.4 mph N/A   Scattered Clouds
12:35 PM 54.0 °F 41.5 °F 63% 30.11 in 10.0 mi North 8.1 mph 20.7 mph N/A   Scattered Clouds
12:55 PM 54.1 °F 41.2 °F 62% 30.10 in 10.0 mi NNW 9.2 mph 17.3 mph N/A   Scattered Clouds
1:15 PM 54.5 °F 40.3 °F 59% 30.09 in 10.0 mi North 9.2 mph 19.6 mph N/A   Clear
1:35 PM 55.2 °F 40.3 °F 57% 30.09 in 10.0 mi NNW 11.5 mph 17.3 mph N/A   Clear
1:55 PM 55.2 °F 40.5 °F 58% 30.08 in 10.0 mi North 10.4 mph 16.1 mph N/A   Clear
2:15 PM 55.9 °F 41.2 °F 58% 30.07 in 10.0 mi NNW 11.5 mph 16.1 mph N/A   Clear
2:35 PM 56.5 °F 40.5 °F 55% 30.07 in 10.0 mi NNW 9.2 mph - N/A   Clear
2:55 PM 56.7 °F 40.5 °F 55% 30.06 in 10.0 mi NNW 11.5 mph 19.6 mph N/A   Clear
3:15 PM 56.7 °F 40.3 °F 54% 30.06 in 10.0 mi North 8.1 mph 17.3 mph N/A   Clear
3:35 PM 56.8 °F 40.5 °F 54% 30.06 in 10.0 mi NNW 11.5 mph 17.3 mph N/A   Clear
3:55 PM 57.0 °F 40.5 °F 54% 30.06 in 10.0 mi NNW 10.4 mph - N/A   Clear
4:15 PM 56.8 °F 39.9 °F 53% 30.06 in 10.0 mi NNW 8.1 mph 17.3 mph N/A   Clear
4:35 PM 56.7 °F 40.3 °F 54% 30.06 in 10.0 mi NNW 11.5 mph - N/A   Clear
4:55 PM 56.5 °F 40.5 °F 55% 30.06 in 10.0 mi North 8.1 mph - N/A   Clear
5:15 PM 55.8 °F 40.3 °F 56% 30.06 in 10.0 mi NNW 4.6 mph - N/A   Clear
5:35 PM 55.2 °F 40.6 °F 58% 30.07 in 10.0 mi NNW 5.8 mph - N/A   Clear
5:55 PM 54.0 °F 40.8 °F 61% 30.07 in 10.0 mi NW 5.8 mph - N/A   Clear
6:15 PM 52.7 °F 40.8 °F 64% 30.08 in 10.0 mi Calm Calm - N/A   Clear
6:35 PM 51.6 °F 41.5 °F 68% 30.08 in 10.0 mi Calm Calm - N/A   Clear
6:55 PM 47.8 °F 43.5 °F 85% 30.09 in 10.0 mi Calm Calm - N/A   Clear
7:15 PM 47.1 °F 42.8 °F 85% 30.09 in 10.0 mi Calm Calm - N/A   Clear
7:35 PM 46.2 °F 42.6 °F 87% 30.10 in 10.0 mi Calm Calm - N/A   Clear
7:55 PM 45.5 °F 42.4 °F 89% 30.11 in 10.0 mi Calm Calm - N/A   Clear
8:15 PM 45.1 °F 42.6 °F 91% 30.11 in 10.0 mi Calm Calm - N/A   Clear
8:35 PM 44.1 °F 42.1 °F 93% 30.11 in 10.0 mi Calm Calm - N/A   Clear
8:55 PM 43.2 °F 41.5 °F 94% 30.11 in 10.0 mi Calm Calm - N/A   Clear
9:15 PM 42.3 °F 41.0 °F 95% 30.12 in 10.0 mi Calm Calm - N/A   Clear
9:35 PM 41.4 °F 40.5 °F 97% 30.12 in 7.0 mi Calm Calm - N/A   Clear
9:55 PM 40.8 °F 40.1 °F 97% 30.12 in 4.0 mi Calm Calm - N/A   Clear
10:15 PM 39.9 °F 39.4 °F 98% 30.13 in 3.0 mi Calm Calm - N/A   Clear
10:35 PM 39.0 °F 38.7 °F 99% 30.13 in 1.5 mi Calm Calm - N/A   Mist
10:55 PM 38.5 °F 38.3 °F 99% 30.12 in 2.0 mi Calm Calm - N/A   Clear
11:15 PM 38.1 °F 37.9 °F 99% 30.12 in 4.0 mi Calm Calm - N/A   Clear
11:35 PM 37.0 °F 37.0 °F 100% 30.12 in 4.0 mi Calm Calm - N/A   Clear
11:55 PM 36.7 °F 36.5 °F 99% 30.12 in 4.0 mi Calm Calm - N/A   Clear